[[{"header":{"parameterUnit":"m.s-1","parameterCategory":1,"la1":30.2991,"la2":30.254,"lo1":-89.0895,"lo2":-89.0444,"dy":0.0017,"dx":0.0017,"nx":28,"ny":28,"refTime":"2025-03-10T03:00:00:Z","depth":0,"parameterNumber":2,"parameterNumberName":"U-component_of_WINDS"},"data":[0,0,0,0,0,0,0,0,0,0,0,0,0,0,0,0,0,0,0,0,0,0,0,0,0,0,0,0,0,0,0,0,0,0,0,0,0,0,0,0,0,0,0,0,0,0,0,0,0,0,0,0,0,0,0,0,0,0,1.6472,1.6472,0,1.6471,1.6471,1.6471,1.6439,1.6438,1.6437,1.6436,1.6437,1.6437,1.6438,0,0,0,0,0,0,0,0,0,0,0,0,0,1.6447,1.6448,1.6472,1.6472,1.6472,1.6471,1.6471,1.6471,1.6439,1.6438,1.6437,1.6436,1.6436,1.6437,1.6438,0,0,0,0,0,0,0,0,0,0,0,0,0,1.6453,1.6448,1.6472,1.6456,1.6454,1.6471,1.6471,1.6471,1.6439,1.6438,1.6436,1.6435,1.6436,1.6437,1.6438,1.6471,0,0,1.6442,1.6443,0,0,0,0,0,0,0,0,1.6453,1.6454,1.6458,1.6457,1.6455,1.6454,1.6463,1.6471,1.6439,1.6445,1.6436,1.6435,1.6443,1.6444,1.6447,1.6471,1.6471,1.6442,1.6443,1.6443,1.6444,0,0,0,0,0,0,0,1.6453,1.6454,1.6472,1.6458,1.6456,1.6449,1.6448,1.6464,1.6451,1.6444,1.6442,1.6442,1.6442,1.6446,1.6446,1.6471,1.6442,1.6443,1.6444,1.6444,1.6525,1.6526,0,0,0,0,0,0,1.6454,1.6454,1.6472,1.6472,1.6451,1.645,1.645,1.6455,1.6451,1.6449,1.6443,1.6441,1.6444,1.6445,1.6446,1.6486,1.6443,1.6445,1.6445,1.6523,1.6525,1.6527,0,0,0,0,0,0,1.6454,1.6456,1.6472,1.6462,1.6464,1.6452,1.6459,1.6456,1.6459,1.645,1.6448,1.6449,1.6443,1.6445,1.6466,1.6485,1.6445,1.6446,1.6522,1.6524,1.6526,1.6564,0,0,0,0,0,0,1.6453,1.6456,1.6468,1.6463,1.6464,1.649,1.646,1.6457,1.6461,1.6458,1.6455,1.6453,1.6442,1.6464,1.6467,1.6486,1.6447,1.652,1.6523,1.6525,1.6561,1.6567,1.6572,0,0,0,0,0,1.6452,1.6479,1.6469,1.6471,1.6479,1.6492,1.6493,1.6479,1.6463,1.6475,1.647,1.6453,1.6482,1.6466,1.6469,1.6489,1.6519,1.6522,1.6525,1.6558,1.6566,1.6572,0,0,0,0,0,0,1.6487,1.6478,1.6467,1.6492,1.6493,1.6486,1.6501,1.6487,1.6493,1.649,1.6474,1.6473,1.6497,1.6495,1.6477,1.6522,1.6498,1.6502,1.6522,1.6529,1.6535,1.6535,1.6448,0,0,0,0,0,1.6497,1.6508,1.65,1.6523,1.6524,1.6512,1.6517,1.6507,1.6508,1.6508,1.6504,1.6506,1.6515,1.6522,1.653,1.656,1.656,1.6575,1.6581,1.6586,1.659,1.6607,1.6614,1.6537,1.6537,1.6537,0,0,1.6519,1.6515,1.6523,1.6529,1.6529,1.6541,1.6513,1.6527,1.6536,1.651,1.653,1.6527,1.6528,1.6554,1.6565,1.6553,1.6611,1.659,1.6594,1.6595,1.6611,1.6618,1.6624,1.6539,1.6539,1.6538,0,0,1.6565,1.6563,1.6582,1.6583,1.6582,1.6575,1.658,1.6575,1.6573,1.6592,1.6573,1.6584,1.6601,1.6603,1.6606,1.6654,1.664,1.6657,1.6687,1.6704,1.671,1.6715,1.6734,1.674,1.6661,1.6661,1.6661,0,1.6592,1.6609,1.6594,1.661,1.6613,1.6591,1.6611,1.6612,1.6615,1.6618,1.6605,1.6626,1.6625,1.6651,1.6663,1.6666,1.6672,1.6657,1.671,1.6716,1.672,1.6737,1.6744,1.6663,1.6663,1.6663,1.6662,0,1.6643,1.6656,1.6671,1.6675,1.668,1.6698,1.6686,1.6694,1.6684,1.6678,1.6699,1.6697,1.6705,1.671,1.67,1.6736,1.6729,1.6713,1.6689,1.673,1.6746,1.6752,1.6666,1.6665,1.6665,1.6664,0,0,1.671,1.6706,1.6712,1.6714,1.6712,1.6722,1.6739,1.6747,1.6754,1.6757,1.6772,1.6787,1.6773,1.6776,1.6766,1.6781,1.6821,1.6763,1.6763,1.6775,1.6861,1.6874,1.6882,1.6811,1.6812,1.6813,1.6862,0,1.6756,1.6784,1.6772,1.6802,1.6814,1.6793,1.6809,1.681,1.6805,1.6815,1.681,1.6822,1.6801,1.6804,1.6817,1.6813,1.6838,1.6809,1.6825,1.6826,1.6826,1.689,1.6903,1.6949,1.6868,1.6869,1.6869,0,1.6812,1.6818,1.6849,1.6847,1.6851,1.6865,1.6872,1.6881,1.6883,1.6879,1.6883,1.687,1.6888,1.6864,1.6889,1.687,1.6876,1.6875,1.6876,1.6878,1.6851,1.6894,1.6963,1.697,1.6879,1.6878,1.6877,0,1.6859,1.6875,1.6896,1.6898,1.6895,1.6905,1.6905,1.6905,1.6911,1.6917,1.6921,1.6929,1.6934,1.6941,1.6931,1.6914,1.6958,1.6932,1.6956,1.6956,1.6966,1.6966,1.7038,1.6969,1.6969,1.6969,1.6969,0,1.6912,1.6932,1.6917,1.693,1.6953,1.6939,1.6962,1.6959,1.6959,1.6972,1.6955,1.6967,1.6953,1.6965,1.6957,1.698,1.6982,1.698,1.6978,1.6982,1.6982,1.6986,1.6983,1.6971,1.697,1.697,1.697,0,1.6968,1.6959,1.6981,1.6977,1.6976,1.6993,1.699,1.7002,1.6997,1.7013,1.7017,1.7008,1.7021,1.7012,1.7024,1.7019,1.705,1.7042,1.7049,1.7047,1.7072,1.707,1.7149,1.716,1.7083,1.7084,1.7085,0,1.7003,1.7018,1.7016,1.7023,1.7023,1.7035,1.7041,1.7028,1.7035,1.7039,1.7051,1.7063,1.7071,1.7093,1.7088,1.7098,1.7092,1.7119,1.7093,1.7097,1.7094,1.7093,1.7095,1.7125,1.7126,1.7126,1.7127,0,1.7065,1.706,1.7069,1.7077,1.7084,1.709,1.7094,1.7101,1.7088,1.7097,1.711,1.7117,1.713,1.7142,1.715,1.7151,1.7137,1.7135,1.7141,1.7146,1.7149,1.7149,1.7064,1.7133,1.7133,1.7132,1.7132,1.7132,1.7112,1.7125,1.7126,1.7137,1.7139,1.7143,1.7155,1.7151,1.7162,1.7171,1.7163,1.7179,1.7181,1.7191,1.7193,1.7206,1.7195,1.7204,1.7206,1.7209,1.7212,1.7147,1.7208,1.7207,1.7207,1.7207,1.7207,0,1.7175,1.7174,1.7184,1.7191,1.72,1.7186,1.719,1.7199,1.7213,1.7216,1.7225,1.724,1.7252,1.7249,1.7259,1.727,1.7265,1.7274,1.7273,1.7274,1.7221,1.7215,1.7278,1.7278,1.7278,1.7278,1.7278,1.7278,1.7208,1.723,1.7225,1.7248,1.7247,1.7262,1.7266,1.7271,1.7273,1.7291,1.7301,1.7298,1.7299,1.731,1.7321,1.732,1.7325,1.7337,1.7333,1.7284,1.7277,1.7271,1.7265,1.7338,1.7338,1.7385,1.7385,1.7386]},{"header":{"parameterUnit":"m.s-1","parameterCategory":1,"la1":30.2991,"la2":30.254,"lo1":-89.0895,"lo2":-89.0444,"dy":0.0017,"dx":0.0017,"nx":28,"ny":28,"refTime":"2025-03-10T03:00:00:Z","depth":0,"parameterNumber":3,"parameterNumberName":"V-component_of_WINDS"},"data":[0,0,0,0,0,0,0,0,0,0,0,0,0,0,0,0,0,0,0,0,0,0,0,0,0,0,0,0,0,0,0,0,0,0,0,0,0,0,0,0,0,0,0,0,0,0,0,0,0,0,0,0,0,0,0,0,0,0,-1.3443,-1.3443,0,-1.3468,-1.3468,-1.3469,-1.3476,-1.3476,-1.3475,-1.3475,-1.3501,-1.3501,-1.3502,0,0,0,0,0,0,0,0,0,0,0,0,0,-1.3402,-1.3403,-1.3443,-1.3443,-1.3444,-1.3468,-1.3468,-1.3469,-1.3476,-1.3476,-1.3475,-1.3475,-1.35,-1.3501,-1.3502,0,0,0,0,0,0,0,0,0,0,0,0,0,-1.3423,-1.3403,-1.3443,-1.345,-1.3451,-1.3468,-1.3468,-1.3469,-1.3476,-1.3476,-1.3475,-1.3475,-1.35,-1.3501,-1.3502,-1.3514,0,0,-1.3506,-1.3507,0,0,0,0,0,0,0,0,-1.3421,-1.3424,-1.3449,-1.345,-1.3451,-1.3469,-1.3463,-1.3484,-1.3476,-1.3466,-1.3475,-1.3475,-1.349,-1.3492,-1.3497,-1.3515,-1.3516,-1.3506,-1.3507,-1.3507,-1.3508,0,0,0,0,0,0,0,-1.342,-1.3423,-1.3453,-1.3449,-1.345,-1.3452,-1.3455,-1.3467,-1.3479,-1.3467,-1.3468,-1.3471,-1.3491,-1.3496,-1.3498,-1.3516,-1.3506,-1.3507,-1.3508,-1.3508,-1.3545,-1.3546,0,0,0,0,0,0,-1.3417,-1.3422,-1.3452,-1.3454,-1.3435,-1.3453,-1.3456,-1.3463,-1.3479,-1.3481,-1.3471,-1.3471,-1.3494,-1.3496,-1.3499,-1.3513,-1.3507,-1.3508,-1.3509,-1.3545,-1.3545,-1.3546,0,0,0,0,0,0,-1.3416,-1.342,-1.3451,-1.3438,-1.3442,-1.3454,-1.3462,-1.3464,-1.3469,-1.3482,-1.3484,-1.3474,-1.3494,-1.3497,-1.351,-1.3514,-1.3509,-1.351,-1.3545,-1.3545,-1.3546,-1.3543,0,0,0,0,0,0,-1.3415,-1.342,-1.3424,-1.3438,-1.3443,-1.3462,-1.3462,-1.3464,-1.3471,-1.3472,-1.3485,-1.3487,-1.3494,-1.3508,-1.3511,-1.3516,-1.3511,-1.3545,-1.3545,-1.3546,-1.3542,-1.3543,-1.3543,0,0,0,0,0,-1.3414,-1.3422,-1.3424,-1.3428,-1.3448,-1.3462,-1.3465,-1.3472,-1.3471,-1.3476,-1.3484,-1.3487,-1.3514,-1.351,-1.3513,-1.3518,-1.3544,-1.3545,-1.3545,-1.3542,-1.3543,-1.3543,0,0,0,0,0,0,-1.3408,-1.3424,-1.3426,-1.344,-1.345,-1.3463,-1.3469,-1.3473,-1.3483,-1.3483,-1.3492,-1.3495,-1.3507,-1.3514,-1.3509,-1.353,-1.3529,-1.353,-1.3525,-1.3526,-1.3526,-1.3524,-1.3512,0,0,0,0,0,-1.3408,-1.3418,-1.3432,-1.3442,-1.3447,-1.3457,-1.3463,-1.3468,-1.3479,-1.3483,-1.3492,-1.3503,-1.3513,-1.352,-1.3531,-1.3544,-1.3547,-1.3549,-1.3549,-1.355,-1.355,-1.3558,-1.3559,-1.3548,-1.3548,-1.3548,0,0,-1.3409,-1.3419,-1.3424,-1.3441,-1.3449,-1.3459,-1.3461,-1.3471,-1.3479,-1.3485,-1.3498,-1.3505,-1.3517,-1.353,-1.3536,-1.3536,-1.3554,-1.355,-1.355,-1.3551,-1.3559,-1.356,-1.3561,-1.3548,-1.3548,-1.3548,0,0,-1.3415,-1.3424,-1.3433,-1.3442,-1.3454,-1.3461,-1.3464,-1.3477,-1.3482,-1.3495,-1.35,-1.351,-1.3528,-1.3536,-1.3543,-1.3553,-1.3556,-1.3556,-1.3558,-1.3566,-1.3566,-1.3567,-1.3571,-1.3572,-1.3557,-1.3557,-1.3557,0,-1.3414,-1.3429,-1.3438,-1.3448,-1.3455,-1.3462,-1.3471,-1.3479,-1.3495,-1.3499,-1.3499,-1.3522,-1.3531,-1.3546,-1.3549,-1.3554,-1.3557,-1.3554,-1.3566,-1.3567,-1.3567,-1.3571,-1.3572,-1.3557,-1.3557,-1.3557,-1.3557,0,-1.3428,-1.3438,-1.3445,-1.3459,-1.3467,-1.3477,-1.3487,-1.3494,-1.3499,-1.3506,-1.352,-1.353,-1.3543,-1.3547,-1.3552,-1.3563,-1.3563,-1.3564,-1.3563,-1.3568,-1.3572,-1.3573,-1.3557,-1.3557,-1.3557,-1.3557,0,0,-1.3431,-1.345,-1.3452,-1.3459,-1.3474,-1.3482,-1.3493,-1.3506,-1.3512,-1.3522,-1.3531,-1.3547,-1.3548,-1.3556,-1.3561,-1.3568,-1.3575,-1.3568,-1.3568,-1.3569,-1.3589,-1.3588,-1.3589,-1.3577,-1.3578,-1.3578,-1.3588,0,-1.3439,-1.3457,-1.3465,-1.3481,-1.3491,-1.3497,-1.3506,-1.3516,-1.3524,-1.3533,-1.3541,-1.3552,-1.3553,-1.3558,-1.3564,-1.3573,-1.3579,-1.3572,-1.3586,-1.3586,-1.3582,-1.3591,-1.359,-1.3598,-1.3589,-1.3589,-1.359,0,-1.345,-1.3461,-1.3477,-1.3491,-1.3496,-1.3504,-1.3516,-1.3525,-1.3537,-1.3542,-1.3551,-1.3556,-1.3567,-1.3566,-1.3582,-1.3577,-1.3583,-1.3588,-1.3589,-1.359,-1.3588,-1.3592,-1.3601,-1.3602,-1.3592,-1.3592,-1.3591,0,-1.345,-1.3469,-1.3481,-1.3487,-1.3504,-1.3509,-1.3516,-1.3528,-1.3535,-1.3546,-1.3551,-1.3563,-1.357,-1.3579,-1.3588,-1.3586,-1.3603,-1.3602,-1.3607,-1.3607,-1.361,-1.361,-1.362,-1.3614,-1.3614,-1.3614,-1.3614,0,-1.3458,-1.3468,-1.3482,-1.3489,-1.35,-1.351,-1.352,-1.3528,-1.3538,-1.3548,-1.3554,-1.3563,-1.3573,-1.3583,-1.359,-1.3602,-1.3605,-1.361,-1.3611,-1.3609,-1.3608,-1.3613,-1.3612,-1.3615,-1.3615,-1.3615,-1.3615,0,-1.346,-1.347,-1.3484,-1.3498,-1.3502,-1.351,-1.3522,-1.353,-1.3538,-1.3549,-1.3552,-1.3564,-1.3577,-1.3586,-1.3602,-1.3606,-1.3619,-1.3621,-1.3615,-1.3616,-1.3621,-1.362,-1.3634,-1.3636,-1.3629,-1.3629,-1.3629,0,-1.3465,-1.3472,-1.3488,-1.3494,-1.3501,-1.3512,-1.352,-1.3529,-1.3537,-1.3551,-1.3557,-1.357,-1.358,-1.3599,-1.3609,-1.3622,-1.3624,-1.3628,-1.3625,-1.3623,-1.3624,-1.3623,-1.3624,-1.3628,-1.3628,-1.3628,-1.3628,0,-1.3471,-1.3476,-1.3486,-1.3499,-1.3507,-1.3518,-1.3528,-1.3533,-1.3545,-1.3553,-1.3565,-1.3574,-1.359,-1.3602,-1.3616,-1.3623,-1.3627,-1.3629,-1.363,-1.3628,-1.3624,-1.3626,-1.3616,-1.3628,-1.3628,-1.3628,-1.3628,-1.3628,-1.3474,-1.3482,-1.3494,-1.3505,-1.3514,-1.3524,-1.3532,-1.3541,-1.3551,-1.3565,-1.357,-1.3583,-1.3595,-1.3613,-1.3621,-1.3631,-1.3632,-1.3634,-1.3635,-1.3635,-1.3635,-1.3623,-1.3634,-1.3634,-1.3634,-1.3634,-1.3634,0,-1.3481,-1.349,-1.35,-1.3515,-1.3524,-1.3527,-1.3539,-1.3547,-1.3558,-1.3569,-1.3579,-1.3594,-1.3606,-1.3617,-1.363,-1.3636,-1.3638,-1.3639,-1.3638,-1.364,-1.3634,-1.3631,-1.3637,-1.3637,-1.3637,-1.3637,-1.3637,-1.3637,-1.3486,-1.3498,-1.3504,-1.3521,-1.3529,-1.3542,-1.3549,-1.3558,-1.3566,-1.3582,-1.3592,-1.36,-1.3611,-1.3625,-1.3636,-1.3639,-1.3643,-1.3644,-1.3647,-1.3641,-1.3641,-1.364,-1.3637,-1.3644,-1.3644,-1.3652,-1.3652,-1.3652]}]]